Location: Tamazert
(32.6352°N, 5.2072°W)
Time: 07:54:12
(UTC+00:00)

Tiros 1 despin weight - Pass Details

Date: 09 October 2022
Orbit: 590 x 637 km, 48.2° (Epoch: 28 November)

Event Time Altitude Azimuth Distance (km) Brightness Sun altitude
Rises 13:16:24 0° 239° (WSW) 2,806 ? 47.7°
Reaches altitude 10° 13:18:41 10° 243° (WSW) 1,910 ? 47.5°
Maximum altitude 13:23:00 59° 323° (NW) 683 ? 47.1°
Drops below altitude 10° 13:27:24 10° 44° (NE) 1,937 ? 46.7°
Sets 13:29:44 0° 48° (NE) 2,849 ? 46.4°
